KA8DUX-2 Weather Reports


Display with metric or nautical units.
time (UTC)temp
F
wind
direction
speed
MPH
gust
MPH
rain 1hr
in
rain 24hr
in
rain mn
in
humidity
%
barometer
mb
20260902074617 76 169 0.0 0.0 0.00 0.00 0.00 99 1012.8
20260902074112 75 162 0.0 0.0 0.00 0.00 0.00 99 1012.9
20260902073607 75 139 0.0 0.0 0.00 0.00 0.00 99 1012.9
20260902073103 75 158 0.0 0.0 0.00 0.00 0.00 99 1013.1
20260902072559 75 142 0.0 0.0 0.00 0.00 0.00 99 1012.9
20260902072056 76 142 0.0 0.0 0.00 0.00 0.00 99 1012.7
20260902071555 76 134 0.0 0.0 0.00 0.00 0.00 99 1013.0
20260902071051 75 136 0.0 0.0 0.00 0.00 0.00 99 1013.0
20260902070546 75 140 0.0 0.0 0.00 0.00 0.00 99 1012.8
20260902070041 75 137 0.0 0.0 0.00 0.00 0.00 99 1012.8
20260902065535 75 133 0.0 0.0 0.00 0.00 0.00 99 1012.8
20260902065030 75 149 0.0 0.0 0.00 0.00 0.00 99 1012.9
20260902064526 75 148 0.0 0.0 0.00 0.00 0.00 99 1012.9
20260902064022 75 144 0.0 0.0 0.00 0.00 0.00 99 1013.0
20260902063521 75 142 0.0 0.0 0.00 0.00 0.00 99 1012.8
20260902063016 75 135 0.0 0.0 0.00 0.00 0.00 99 1012.8
20260902062515 75 142 0.0 0.0 0.00 0.00 0.00 99 1012.7
20260902062011 75 155 0.0 0.0 0.00 0.00 0.00 99 1012.5
20260902061505 75 154 0.0 0.0 0.00 0.00 0.00 99 1012.6
20260902061001 75 147 0.0 0.0 0.00 0.00 0.00 99 1012.9
20260902060457 75 149 0.0 0.0 0.00 0.00 0.00 99 1012.5
20260902055953 75 138 0.0 0.0 0.00 0.00 0.00 99 1012.4
20260902055449 75 134 0.0 0.0 0.00 0.00 0.00 98 1012.5
20260902054944 75 136 0.0 0.0 0.00 0.00 0.00 98 1012.6
20260902054439 74 142 0.0 0.0 0.00 0.00 0.00 98 1012.5
20260902053934 74 144 0.0 0.0 0.00 0.00 0.00 98 1012.5
20260902053430 74 130 0.0 0.0 0.00 0.00 0.00 97 1012.6
20260902052928 74 127 0.0 0.0 0.00 0.00 0.00 97 1012.6
20260902052424 74 129 0.0 0.0 0.00 0.00 0.00 97 1012.6
20260902051919 74 133 0.0 0.0 0.00 0.00 0.00 97 1012.8
20260902051414 74 149 0.0 0.0 0.00 0.00 0.00 97 1012.6
20260902050913 74 135 0.0 0.0 0.00 0.00 0.00 97 1012.7
20260902050413 74 130 0.0 0.0 0.00 0.00 0.00 97 1012.7
20260902045908 74 137 0.0 0.0 0.00 0.00 0.00 97 1012.8
20260902045403 74 126 0.0 0.0 0.00 0.00 0.00 97 1013.0
20260902044859 74 131 0.0 0.0 0.00 0.00 0.00 97 1013.0
20260902044354 74 133 0.0 0.0 0.00 0.00 0.00 97 1012.7
20260902043854 74 128 0.0 0.0 0.00 0.00 0.00 97 1012.8
20260902043350 74 126 0.0 0.0 0.00 0.00 0.00 96 1012.6
20260902042845 74 130 0.0 0.0 0.00 0.00 0.00 96 1012.8
20260902042344 74 127 0.0 0.0 0.00 0.00 0.00 96 1012.6
20260902041840 74 130 0.0 0.0 0.00 0.00 0.00 96 1012.7
20260902041340 75 127 0.0 0.0 0.00 0.00 0.00 96 1012.7
20260902040838 75 130 0.0 0.0 0.00 0.00 0.00 96 1012.9
20260902040334 75 131 0.0 0.0 0.00 0.00 0.00 96 1013.0
20260902035832 75 130 0.0 0.0 0.00 0.00 0.00 96 1012.8
20260902035328 75 131 0.0 0.0 0.00 0.00 0.00 96 1013.2
20260902034827 75 139 0.0 0.0 0.00 0.00 0.00 95 1013.2
20260902034323 75 135 0.0 0.0 0.00 0.00 0.00 95 1013.1
20260902033820 75 122 0.0 0.0 0.00 0.00 0.00 95 1012.8
20260902033316 75 124 0.0 0.0 0.00 0.00 0.00 95 1012.8
20260902032815 75 113 0.0 0.0 0.00 0.00 0.00 95 1012.8
20260902032310 75 146 0.0 0.0 0.00 0.00 0.00 95 1012.9
20260902031809 75 125 0.0 0.0 0.00 0.00 0.00 95 1012.9
20260902031305 75 128 0.0 0.0 0.00 0.00 0.00 94 1013.0
20260902030801 75 122 0.0 0.0 0.00 0.00 0.00 94 1013.0
20260902030255 75 128 0.0 0.0 0.00 0.00 0.00 94 1013.3
20260902025755 76 121 0.0 0.0 0.00 0.00 0.00 94 1013.0
20260902025250 76 124 0.0 0.0 0.00 0.00 0.00 93 1013.1
20260902024744 76 127 0.0 0.0 0.00 0.00 0.00 93 1013.1
20260902024240 76 134 0.0 0.0 0.00 0.00 0.00 93 1013.0
20260902023736 76 128 0.0 0.0 0.00 0.00 0.00 92 1012.9
20260902023231 76 134 0.0 0.0 0.00 0.00 0.00 92 1013.1
20260902022730 76 128 0.0 0.0 0.00 0.00 0.00 92 1013.2
20260902022226 76 128 0.0 0.0 0.00 0.00 0.00 91 1013.3
20260902021721 77 116 0.0 0.0 0.00 0.00 0.00 91 1012.9
20260902021215 77 124 0.0 0.0 0.00 0.00 0.00 90 1012.9
20260902020712 77 134 0.0 0.0 0.00 0.00 0.00 89 1013.1
20260902020208 77 129 0.0 0.0 0.00 0.00 0.00 89 1013.1
20260902015703 77 141 0.0 0.0 0.00 0.00 0.00 89 1013.1
20260902015159 77 152 0.0 0.0 0.00 0.00 0.00 89 1012.8
20260902014655 77 127 0.0 0.0 0.00 0.00 0.00 89 1013.0
20260902014150 77 129 0.0 0.0 0.00 0.00 0.00 88 1013.0
20260902013649 77 130 0.0 0.0 0.00 0.00 0.00 87 1013.1
20260902013145 78 135 0.0 0.0 0.00 0.00 0.00 87 1013.0
20260902012640 78 131 0.0 0.0 0.00 0.00 0.00 87 1012.9
20260902012136 78 133 0.0 0.0 0.00 0.00 0.00 86 1012.7
20260902011631 78 135 0.0 0.0 0.00 0.00 0.00 86 1012.6
20260902011130 78 126 0.0 0.0 0.00 0.00 0.00 86 1012.4
20260902010625 79 134 0.0 0.0 0.00 0.00 0.00 85 1012.4
20260902010121 79 133 0.0 0.0 0.00 0.00 0.00 84 1012.5
20260902005619 79 133 0.0 0.0 0.00 0.00 0.00 84 1012.4
20260902005115 79 134 0.0 0.0 0.00 0.00 0.00 84 1012.5
20260902004614 80 126 0.0 1.0 0.00 0.00 0.00 84 1012.4
20260902004109 80 158 0.0 1.0 0.00 0.00 0.00 84 1012.2
20260902003605 80 153 0.0 1.0 0.00 0.00 0.00 85 1012.4
20260902003100 80 133 0.0 0.0 0.00 0.00 0.00 84 1012.6
20260902002555 80 131 0.0 0.0 0.00 0.00 0.00 84 1012.4
20260902002050 80 132 0.0 0.0 0.00 0.00 0.00 84 1012.6
20260902001545 81 138 1.0 1.0 0.00 0.00 0.00 83 1012.9
20260902001040 81 134 0.0 0.0 0.00 0.00 0.00 83 1012.7
20260902000534 81 137 1.0 1.0 0.00 0.00 0.00 83 1012.7
20260902000030 81 169 1.0 1.0 0.00 0.00 0.00 83 1012.6
20260901235524 82 210 0.0 1.0 0.00 0.00 0.00 83 1012.9
20260901235020 82 157 0.0 0.0 0.00 0.00 0.00 83 1012.9
20260901234518 82 176 1.0 2.0 0.00 0.00 0.00 83 1013.0
20260901234014 82 193 0.0 1.0 0.00 0.00 0.00 83 1012.8
20260901233508 82 130 0.0 0.0 0.00 0.00 0.00 82 1013.2
20260901233005 82 226 2.0 2.0 0.00 0.00 0.00 82 1013.2
20260901232500 82 130 1.0 2.0 0.00 0.00 0.00 81 1013.4
20260901231954 83 151 1.0 1.0 0.00 0.00 0.00 81 1013.1
20260901231451 83 131 0.0 0.0 0.00 0.00 0.00 81 1013.2
20260901230948 83 165 2.0 2.0 0.00 0.00 0.00 80 1013.2
20260901230447 83 172 0.0 0.0 0.00 0.00 0.00 80 1013.0
20260901225942 83 224 1.0 2.0 0.00 0.00 0.00 80 1012.9
20260901225442 83 145 0.0 0.0 0.00 0.00 0.00 80 1012.9
20260901224936 84 198 1.0 2.0 0.00 0.00 0.00 79 1012.7
20260901224433 84 144 2.0 2.0 0.00 0.00 0.00 79 1013.1
20260901223929 84 177 2.0 3.0 0.00 0.00 0.00 78 1012.6
20260901223424 84 144 0.0 0.0 0.00 0.00 0.00 78 1012.8
20260901222920 84 169 0.0 2.0 0.00 0.00 0.00 77 1012.9
20260901222416 84 138 0.0 0.0 0.00 0.00 0.00 77 1012.8
20260901221911 84 187 0.0 1.0 0.00 0.00 0.00 77 1013.2
20260901221408 84 294 1.0 1.0 0.00 0.00 0.00 76 1013.4
20260901220902 85 243 4.0 7.0 0.00 0.00 0.00 76 1013.4
20260901220401 85 196 3.0 5.0 0.00 0.00 0.00 76 1013.0
20260901215900 86 147 1.0 1.0 0.00 0.00 0.00 76 1013.5
20260901215359 86 223 1.0 1.0 0.00 0.00 0.00 76 1013.4
20260901214858 86 143 1.0 2.0 0.00 0.00 0.00 76 1013.1
20260901214357 86 143 0.0 1.0 0.00 0.00 0.00 76 1013.3
20260901213856 87 145 1.0 1.0 0.00 0.00 0.00 76 1013.1
20260901213352 87 126 1.0 1.0 0.00 0.00 0.00 75 1013.0
20260901212851 87 142 0.0 0.0 0.00 0.00 0.00 77 1013.1
20260901212347 87 227 2.0 2.0 0.00 0.00 0.00 76 1012.9
20260901211843 88 134 3.0 3.0 0.00 0.00 0.00 76 1013.1
20260901211338 88 211 2.0 3.0 0.00 0.00 0.00 77 1012.9
20260901210834 89 141 2.0 2.0 0.00 0.00 0.00 77 1013.1
20260901210329 88 150 1.0 2.0 0.00 0.00 0.00 78 1013.1
20260901205825 88 168 3.0 5.0 0.00 0.00 0.00 77 1012.8
20260901205320 88 213 5.0 8.0 0.00 0.00 0.00 77 1012.8
20260901204815 89 144 2.0 2.0 0.00 0.00 0.00 75 1012.7
20260901204312 89 152 2.0 3.0 0.00 0.00 0.00 75 1012.7
20260901203811 88 226 3.0 5.0 0.00 0.00 0.00 77 1012.8
20260901203305 89 213 3.0 5.0 0.00 0.00 0.00 77 1012.9
20260901202800 89 214 1.0 1.0 0.00 0.00 0.00 76 1012.7
20260901202255 88 163 1.0 2.0 0.00 0.00 0.00 77 1012.7
20260901201751 90 212 4.0 5.0 0.00 0.00 0.00 75 1012.8
20260901201250 89 112 2.0 2.0 0.00 0.00 0.00 77 1012.7
20260901200744 91 174 2.0 2.0 0.00 0.00 0.00 75 1012.6
20260901200240 90 217 0.0 1.0 0.00 0.00 0.00 76 1012.6
20260901195738 90 294 0.0 2.0 0.00 0.00 0.00 75 1012.6
20260901195231 91 206 2.0 3.0 0.00 0.00 0.00 73 1012.6
20260901194727 90 162 1.0 1.0 0.00 0.00 0.00 75 1012.7
20260901194216 90 237 1.0 2.0 0.00 0.00 0.00 74 1012.8
20260901193713 91 199 2.0 2.0 0.00 0.00 0.00 73 1012.8
20260901193212 92 158 2.0 2.0 0.00 0.00 0.00 73 1012.7
20260901192707 91 72 1.0 1.0 0.00 0.00 0.00 74 1012.8
20260901192202 91 210 2.0 2.0 0.00 0.00 0.00 73 1012.8
20260901191658 92 230 1.0 1.0 0.00 0.00 0.00 73 1012.9
20260901191154 89 112 1.0 2.0 0.00 0.00 0.00 77 1012.9
20260901190650 90 248 2.0 2.0 0.00 0.00 0.00 76 1013.0
20260901190148 88 126 1.0 2.0 0.00 0.00 0.00 78 1013.2
20260901185647 88 175 1.0 2.0 0.00 0.00 0.00 78 1013.2
20260901185145 88 225 1.0 1.0 0.00 0.00 0.00 78 1013.3
20260901184642 88 152 1.0 1.0 0.00 0.00 0.00 78 1013.1
20260901184137 88 216 1.0 2.0 0.00 0.00 0.00 80 1013.2
20260901183632 88 155 1.0 1.0 0.00 0.00 0.00 79 1013.0
20260901183127 88 145 1.0 1.0 0.00 0.00 0.00 80 1012.9
20260901182623 87 127 0.0 1.0 0.00 0.00 0.00 80 1012.8
20260901182122 88 136 0.0 1.0 0.00 0.00 0.00 79 1013.1
20260901181617 89 196 3.0 3.0 0.00 0.00 0.00 77 1013.1
20260901181116 90 29 2.0 2.0 0.00 0.00 0.00 76 1013.2
20260901180616 90 222 1.0 2.0 0.00 0.00 0.00 77 1013.4
20260901180110 89 176 0.0 1.0 0.00 0.00 0.00 77 1013.5
20260901175609 91 186 2.0 3.0 0.00 0.00 0.00 75 1013.4
20260901175104 91 142 0.0 0.0 0.00 0.00 0.00 74 1013.4
20260901174559 90 180 3.0 3.0 0.00 0.00 0.00 75 1013.5
20260901174055 89 227 0.0 1.0 0.00 0.00 0.00 77 1013.5
20260901173549 89 191 2.0 2.0 0.00 0.00 0.00 78 1013.2
20260901173046 89 140 1.0 1.0 0.00 0.00 0.00 76 1013.4
20260901172541 90 166 3.0 5.0 0.00 0.00 0.00 76 1013.4
20260901172039 88 124 1.0 1.0 0.00 0.00 0.00 78 1013.4
20260901171539 88 142 0.0 1.0 0.00 0.00 0.00 78 1013.5
20260901171038 87 190 2.0 2.0 0.00 0.00 0.00 79 1013.2
20260901170537 86 127 2.0 3.0 0.00 0.00 0.00 80 1013.3
20260901170033 86 255 4.0 5.0 0.00 0.00 0.00 80 1013.3
20260901165532 87 221 5.0 8.0 0.00 0.00 0.00 78 1013.3
20260901165028 89 208 2.0 2.0 0.00 0.00 0.00 77 1013.3
20260901164523 89 149 2.0 2.0 0.00 0.00 0.00 77 1013.3
20260901164018 88 212 3.0 5.0 0.00 0.00 0.00 78 1013.3
20260901163514 89 217 3.0 5.0 0.00 0.00 0.00 76 1013.3
20260901163012 89 119 1.0 1.0 0.00 0.00 0.00 77 1013.2
20260901162508 87 157 1.0 1.0 0.00 0.00 0.00 78 1013.2
20260901162007 86 155 1.0 1.0 0.00 0.00 0.00 79 1013.4
20260901161506 87 133 0.0 1.0 0.00 0.00 0.00 79 1013.4
20260901161001 88 176 3.0 3.0 0.00 0.00 0.00 77 1013.3
20260901160457 88 132 0.0 1.0 0.00 0.00 0.00 77 1013.5
20260901155956 88 134 0.0 0.0 0.00 0.00 0.00 78 1013.7
20260901155455 87 129 1.0 1.0 0.00 0.00 0.00 78 1013.4
20260901154952 87 160 1.0 1.0 0.00 0.00 0.00 77 1013.5
20260901154452 87 123 0.0 1.0 0.00 0.00 0.00 78 1013.4
20260901153947 87 200 1.0 2.0 0.00 0.00 0.00 77 1013.4
20260901153441 86 151 0.0 0.0 0.00 0.00 0.00 80 1013.3
20260901152940 86 233 1.0 1.0 0.00 0.00 0.00 80 1013.2
20260901152435 85 157 1.0 1.0 0.00 0.00 0.00 81 1013.5
20260901151934 85 210 2.0 3.0 0.00 0.00 0.00 81 1013.4
20260901151430 85 164 1.0 1.0 0.00 0.00 0.00 81 1013.4
20260901150929 84 189 1.0 1.0 0.00 0.00 0.00 82 1013.6
20260901150427 84 134 1.0 1.0 0.00 0.00 0.00 83 1013.4
20260901145924 84 220 1.0 2.0 0.00 0.00 0.00 82 1013.6
20260901145419 85 147 1.0 1.0 0.00 0.00 0.00 81 1013.3
20260901144914 84 116 0.0 0.0 0.00 0.00 0.00 82 1013.5
20260901144409 84 156 1.0 1.0 0.00 0.00 0.00 83 1013.6
20260901143905 83 141 0.0 0.0 0.00 0.00 0.00 83 1013.5
20260901143401 82 130 1.0 1.0 0.00 0.00 0.00 84 1013.7
20260901142857 82 151 0.0 1.0 0.00 0.00 0.00 86 1013.8
20260901142356 81 127 2.0 3.0 0.00 0.00 0.00 86 1013.6
20260901141851 81 132 1.0 2.0 0.00 0.00 0.00 86 1013.3
20260901141346 82 149 1.0 1.0 0.00 0.00 0.00 85 1013.7
20260901140845 81 122 0.0 0.0 0.00 0.00 0.00 85 1013.4
20260901140343 80 179 1.0 1.0 0.00 0.00 0.00 87 1013.3
20260901135838 79 109 0.0 1.0 0.00 0.00 0.00 89 1013.6
20260901135334 78 163 0.0 0.0 0.00 0.00 0.00 90 1013.4
20260901134829 77 149 1.0 2.0 0.00 0.00 0.00 91 1013.5
20260901134325 77 231 1.0 2.0 0.00 0.00 0.00 92 1013.4
20260901133819 76 198 2.0 2.0 0.00 0.00 0.00 93 1013.5
20260901133318 76 164 0.0 0.0 0.00 0.00 0.00 93 1013.4
20260901132817 76 141 0.0 1.0 0.00 0.00 0.00 93 1013.5
20260901132312 75 147 1.0 1.0 0.00 0.00 0.00 94 1013.4
20260901131806 75 163 1.0 1.0 0.00 0.00 0.00 94 1013.4
20260901131306 75 201 2.0 2.0 0.00 0.00 0.00 95 1013.3
20260901130800 75 242 3.0 3.0 0.00 0.00 0.00 95 1013.5
20260901130255 74 135 0.0 0.0 0.00 0.00 0.00 96 1013.6
20260901125752 74 162 0.0 0.0 0.00 0.00 0.00 96 1013.3
20260901125247 74 127 0.0 0.0 0.00 0.00 0.00 97 1013.6
20260901124742 73 135 0.0 0.0 0.00 0.00 0.00 99 1013.3
20260901124236 73 142 0.0 0.0 0.00 0.00 0.00 99 1013.4
20260901123736 73 152 0.0 1.0 0.00 0.00 0.00 99 1013.4
20260901123231 73 137 0.0 0.0 0.00 0.00 0.00 99 1013.4
20260901122730 72 135 0.0 0.0 0.00 0.00 0.00 99 1013.1
20260901122225 72 148 0.0 0.0 0.00 0.00 0.00 99 1013.2
20260901121719 71 145 0.0 0.0 0.00 0.00 0.00 99 1013.3
20260901121214 71 147 0.0 0.0 0.00 0.00 0.00 99 1013.0
20260901120714 71 139 0.0 0.0 0.00 0.00 0.00 99 1013.0
20260901120209 71 135 0.0 0.0 0.00 0.00 0.00 99 1012.9
20260901115704 71 143 0.0 0.0 0.00 0.00 0.00 99 1013.2
20260901115200 71 138 0.0 0.0 0.00 0.00 0.00 99 1013.1
20260901114657 71 137 0.0 0.0 0.00 0.00 0.00 99 1013.0
20260901114156 70 140 0.0 0.0 0.00 0.00 0.00 99 1012.9
20260901113655 70 136 0.0 0.0 0.00 0.00 0.00 99 1012.9
20260901113151 70 133 0.0 0.0 0.00 0.00 0.00 99 1012.7
20260901112644 70 134 0.0 0.0 0.00 0.00 0.00 99 1012.6
20260901112144 70 132 0.0 0.0 0.00 0.00 0.00 99 1012.7
20260901111644 70 132 0.0 0.0 0.00 0.00 0.00 99 1012.8
20260901111138 70 132 0.0 0.0 0.00 0.00 0.00 99 1012.7
20260901110633 70 133 0.0 0.0 0.00 0.00 0.00 99 1012.7
20260901110128 70 134 0.0 0.0 0.00 0.00 0.00 99 1012.7
20260901105625 70 135 0.0 0.0 0.00 0.00 0.00 99 1012.7
20260901105123 70 145 0.0 0.0 0.00 0.00 0.00 99 1012.5
20260901104620 70 133 0.0 0.0 0.00 0.00 0.00 99 1012.7
20260901104114 70 133 0.0 0.0 0.00 0.00 0.00 99 1012.5
20260901103609 70 133 0.0 0.0 0.00 0.00 0.00 99 1012.4
20260901103105 70 133 0.0 0.0 0.00 0.00 0.00 99 1012.5
20260901102604 71 133 0.0 0.0 0.00 0.00 0.00 99 1012.6
20260901102059 71 136 0.0 0.0 0.00 0.00 0.00 99 1012.4
20260901101555 71 133 0.0 0.0 0.00 0.00 0.00 99 1012.7
20260901101054 71 133 0.0 0.0 0.00 0.00 0.00 99 1012.4
20260901100548 71 134 0.0 0.0 0.00 0.00 0.00 99 1012.4
20260901100048 71 135 0.0 0.0 0.00 0.00 0.00 99 1012.7
20260901095546 71 142 0.0 0.0 0.00 0.00 0.00 99 1012.3
20260901095044 71 133 0.0 0.0 0.00 0.00 0.00 99 1012.3
20260901094540 71 134 0.0 0.0 0.00 0.00 0.00 99 1012.6
20260901094039 71 133 0.0 0.0 0.00 0.00 0.00 99 1012.5
20260901093534 71 134 0.0 0.0 0.00 0.00 0.00 99 1012.5
20260901093029 71 137 0.0 0.0 0.00 0.00 0.00 99 1012.5
20260901092524 71 136 0.0 0.0 0.00 0.00 0.00 99 1012.5
20260901092020 71 134 0.0 0.0 0.00 0.00 0.00 99 1012.6
20260901091515 71 133 0.0 0.0 0.00 0.00 0.00 99 1012.4
20260901091010 71 131 0.0 0.0 0.00 0.00 0.00 99 1012.6
20260901090509 71 134 0.0 0.0 0.00 0.00 0.00 99 1012.3
20260901090005 71 132 0.0 0.0 0.00 0.00 0.00 99 1012.4
20260901085501 71 131 0.0 0.0 0.00 0.00 0.00 99 1012.5
20260901084957 72 130 0.0 0.0 0.00 0.00 0.00 99 1012.4
20260901084453 72 136 0.0 0.0 0.00 0.00 0.00 99 1012.3
20260901083949 72 146 0.0 0.0 0.00 0.00 0.00 99 1012.3
20260901083449 72 138 0.0 0.0 0.00 0.00 0.00 99 1012.4
20260901082947 72 141 0.0 0.0 0.00 0.00 0.00 99 1012.5
20260901082442 72 143 0.0 0.0 0.00 0.00 0.00 99 1012.4
20260901081937 72 140 0.0 0.0 0.00 0.00 0.00 99 1012.5
20260901081432 72 138 0.0 0.0 0.00 0.00 0.00 99 1012.5
20260901080927 72 154 0.0 0.0 0.00 0.00 0.00 99 1012.3
20260901080421 72 136 0.0 0.0 0.00 0.00 0.00 99 1012.3
20260901075915 72 170 0.0 0.0 0.00 0.00 0.00 99 1012.2
20260901075410 72 137 0.0 0.0 0.00 0.00 0.00 99 1012.3
20260901074910 72 137 0.0 0.0 0.00 0.00 0.00 99 1012.5